Regional Weather Roundup
Issued by NWS Jackson, KY

Home | Current Version | Previous Version | Graphics & Text | Print | Product List | Glossary On
Versions: 1 2 3 4 5 6 7 8 9 10 11 12 13 14 15 16 17 18 19 20 21 22 23 24 25 26 27 28 29 30 31 32 33 34 35 36 37 38 39 40 41 42 43 44 45 46 47 48 49 50
000
ASUS43 KJKL 051210
RWRJKL

EAST KENTUCKY HOURLY WEATHER ROUNDUP
NATIONAL WEATHER SERVICE JACKSON KY
700 AM EST FRI FEB 05 2016

NOTE: "FAIR" INDICATES FEW OR NO CLOUDS BELOW 12,000 FEET WITH
NO SIGNIFICANT WEATHER AND/OR OBSTRUCTIONS TO VISIBILITY.

* THESE REPORTS ARE NOT UNDER NWS QUALITY CONTROL AND MAY NOT
  REPORT WEATHER SUCH AS PRECIPITATION AND FOG.

KYZ079-080-083-085-087-088-110-112-115-119-120-051300
...EASTERN KENTUCKY...

CITY           SKY/WX    TMP DP  RH WIND       PRES   REMARKS
JACKSON        CLEAR     24  16  71 NW3       30.38R
6HR MIN TEMP:  24; 6HR MAX TEMP:  29;

LONDON         CLEAR     22  18  85 CALM      30.40R
6HR MIN TEMP:  22; 6HR MAX TEMP:  28;

SOMERSET*      CLEAR     21  21 100 CALM      30.44R
MONTICELLO*    PTCLDY    18  17  96 W9        30.44R WCI   7
6HR MIN TEMP:  17; 6HR MAX TEMP:  25;

WILLIAMSBURG*  SUNNY     19  19 100 CALM      30.41R
MIDDLESBORO*   CLEAR     26  19  75 CALM      30.40S
6HR MIN TEMP:  26; 6HR MAX TEMP:  32;

HARLAN APT*      N/A     27  18  69 CALM      30.38R
HAZARD APT*    SUNNY    N/A N/A N/A CALM      30.39R
BLACK MTN*       N/A     14  14 100 N5          N/A  WCI   6
BIG SANDY*     SUNNY     25  18  72 NW5       30.39R WCI  20
6HR MIN TEMP:  25; 6HR MAX TEMP:  31;

MOREHEAD APT*  SUNNY     23  18  80 CALM      30.42R
$$

KYZ035-036-041-042-044-050-067-078-099-051300
...CENTRAL KENTUCKY...

CITY           SKY/WX    TMP DP  RH WIND       PRES   REMARKS
MT STERLING*   CLEAR     19  19 100 W3        30.42R
DANVILLE*      PTCLDY    21  19  93 CALM      30.42R
RICHMOND*      PTCLDY    21  18  86 CALM      30.41R
LEXINGTON      CLEAR     20  16  84 SE6       30.39R WCI  12
6HR MIN TEMP:  19; 6HR MAX TEMP:  26;

FRANKFORT      CLEAR     19  15  84 CALM      30.40R
6HR MIN TEMP:  18; 6HR MAX TEMP:  25;

$$

KYZ091>093-OHZ055-061-077-WVZ005-015-034-035-042-051300
...SOUTHERN OHIO/WEST VIRGINIA...

CITY           SKY/WX    TMP DP  RH WIND       PRES   REMARKS
COVINGTON      CLEAR     19  16  88 S3        30.38R
COLUMBUS       CLEAR     22  14  71 CALM      30.37R
DAYTON         CLEAR     20  17  88 SW5       30.37R WCI  13
WILMINGTON     CLEAR     20  16  84 SW3       30.36R
HUNTINGTON       N/A     25  17  72 NW3       30.40R
CHARLESTON       N/A     26  17  68 NW13      30.37R WCI  15
PINEVILLE*       N/A     26  13  58 MISG      30.35R
BECKLEY        MOCLDY    22  13  68 NW13      30.23R WCI  10
$$

VAZ002-007-008-TNZ017-027-036-066-071-051300
...SOUTHWEST VIRGINIA/EAST TENNESSEE...

CITY           SKY/WX    TMP DP  RH WIND       PRES   REMARKS
BRISTOL        PTCLDY    26  15  63 NW6       30.35R WCI  19
KNOXVILLE      CLEAR     29  18  63 CALM      30.42R
OAK RIDGE      PTCLDY    27  19  72 NE3       30.42S
CROSSVILLE     CLEAR     22  16  78 NE3       30.36S
NASHVILLE      CLEAR     24  18  77 CALM      30.44R
$$

...KEY TO REMARKS...
VSB - VISIBILITY IN MILES
WCI - WIND CHILL INDEX
HX  - HEAT INDEX

$$



USA.gov is the U.S. government's official web portal to all federal, state and local government web resources and services.